Location: Old Broadwell Mill Observatory
(33.8015°N, 85.8137°W)
Time: 22:28:17
(UTC-05:00)

Gurwin Techsat 1B - Visible Passes

Search period start: 27 July 2015 00:00
Search period end: 06 August 2015 00:00
Orbit: 812 x 814 km, 98.5° (Epoch: 27 July)

Date Brightness Start Highest point End Pass type
(mag) Time Alt. Az. Time Alt. Az. Time Alt. Az.
27 Jul 9.3 02:43:43 10° NNE 02:48:49 46° E 02:48:49 46° E visible
27 Jul 10.2 04:24:47 10° NNW 04:28:29 19° WNW 04:30:02 16° W visible
28 Jul 10.1 02:21:30 10° NE 02:25:45 27° E 02:25:45 27° E visible
28 Jul 9.6 04:01:17 10° N 04:05:54 30° WNW 04:06:57 28° W visible
29 Jul 10.8 01:59:50 10° NE 02:02:39 16° E 02:02:39 16° E visible
29 Jul 8.8 03:38:08 10° N 03:43:17 50° WNW 03:43:52 48° W visible
30 Jul 8.4 03:15:16 10° N 03:20:36 84° WNW 03:20:47 82° WSW visible
31 Jul 9.0 02:52:37 10° NNE 02:57:42 58° E 02:57:42 58° E visible
31 Jul 10.4 04:34:19 10° NNW 04:37:25 15° WNW 04:38:55 13° W visible
01 Aug 9.9 02:30:15 10° NNE 02:34:37 33° E 02:34:37 33° E visible
01 Aug 9.8 04:10:33 10° NNW 04:14:51 25° WNW 04:15:49 23° W visible
02 Aug 10.6 02:08:18 10° NE 02:11:31 20° E 02:11:31 20° E visible
02 Aug 9.1 03:47:17 10° N 03:52:15 40° WNW 03:52:44 39° W visible
03 Aug 11.2 01:47:30 10° ENE 01:48:26 11° E 01:48:26 11° E visible
03 Aug 8.5 03:24:19 10° N 03:29:36 68° WNW 03:29:38 68° WNW visible
04 Aug 8.7 03:01:34 10° NNE 03:06:33 70° ENE 03:06:33 70° ENE visible
04 Aug 10.6 04:44:07 10° NW 04:46:19 12° WNW 04:47:45 11° W visible
05 Aug 9.6 02:39:05 10° NNE 02:43:27 40° E 02:43:27 40° E visible
05 Aug 10.0 04:19:53 10° NNW 04:23:48 20° WNW 04:24:40 19° W visible
